sat.trackr.live / text

‹ back to catalog

STARLINK-30806

NORAD 58180 · 2023-167F

PAYLOAD ACTIVE UNKNOWN

§ Identity

Operator
Country
US
Launch date
2023-10-30
Launch site
AFETR
Launch vehicle
Mass (kg)
RCS (m²)

Purposes: comms

External: N2YO · Heavens-Above · Gunter

§ Orbital elements

Epoch: 2026-05-25T03:38:06.265824Z

Period
94.11 min
Inclination
43.0014°
Eccentricity
0.0002129
Mean motion
15.30064629 rev/d
Perigee alt
474.2 km
Apogee alt
477.1 km
Semi-major
6,853.8 km
B*
1.4560e-3
RAAN
71.1711°
Arg perigee
203.9411°
Mean anomaly
156.1343°
Rev number
14,268

§ Raw data

STARLINK-308061 58180U 23167F   26145.15146141  .00043231  00000+0  14560-2 0  99922 58180  43.0014  71.1711 0002129 203.9411 156.1343 15.30064629142688

JSON: /api/v1/satellites/58180 · /tle

For live sub-satellite position, see the globe view (requires WebGL).

§ Visibility from observer

Set your observer location to see the next 7 days of passes ≥ 10°. The values pass through the URL so the page stays shareable.

No JS? Fill the form by hand. The geolocation button needs JavaScript.